CW1172 Weather Reports


time (UTC)temp
C
wind
direction
speed
KPH
gust
KPH
rain 1hr
cm
rain 24hr
cm
rain mn
cm
humidity
%
barometer
mb
20260903174552 15 188 0.0 0.0 0.00 0.00 0.00 82 1003.5
20260903173052 16 188 0.0 0.0 0.00 0.00 0.00 81 1003.6
20260903171554 16 189 0.0 0.0 0.00 0.00 0.00 81 1003.4
20260903170049 16 188 0.0 0.0 0.00 0.00 0.00 80 1003.6
20260903164556 16 190 0.0 0.0 0.00 0.00 0.00 79 1003.8
20260903163048 16 188 0.0 0.0 0.00 0.00 0.00 79 1004.0
20260903161548 16 188 0.0 0.0 0.00 0.00 0.00 79 1004.2
20260903160047 16 189 0.0 0.0 0.00 0.00 0.00 78 1004.3
20260903154545 16 188 0.0 0.0 0.00 0.00 0.00 77 1004.3
20260903153042 16 189 0.0 0.0 0.00 0.00 0.00 77 1004.6
20260903151541 16 219 0.0 0.0 0.00 0.00 0.00 77 1004.7
20260903150040 16 360 0.0 0.0 0.00 0.00 0.00 77 1004.8
20260903144541 16 240 0.0 0.0 0.00 0.00 0.00 76 1004.8
20260903143042 16 360 0.0 0.0 0.00 0.00 0.00 76 1005.1
20260903141540 16 175 0.0 0.0 0.00 0.00 0.00 77 1005.2
20260903140040 16 238 0.0 0.0 0.00 0.00 0.00 77 1005.3
20260903134539 16 360 0.0 0.0 0.00 0.00 0.00 76 1005.5
20260903133040 16 192 0.0 0.0 0.00 0.00 0.00 76 1005.6
20260903131539 16 244 0.0 0.0 0.00 0.00 0.00 76 1005.7
20260903130041 16 203 0.0 0.0 0.00 0.00 0.00 77 1005.8
20260903124532 16 360 0.0 0.0 0.00 0.00 0.00 77 1005.8
20260903123035 16 246 0.0 0.0 0.00 0.00 0.00 77 1006.0
20260903121535 16 252 0.0 0.0 0.00 0.00 0.00 76 1006.2
20260903120030 16 215 0.0 0.0 0.00 0.00 0.00 76 1006.4
20260903114528 16 186 0.0 0.0 0.00 0.00 0.00 76 1006.5
20260903113034 15 159 0.0 0.0 0.00 0.00 0.00 77 1006.6
20260903111528 16 360 0.0 0.0 0.00 0.00 0.00 76 1006.8
20260903110104 16 202 0.0 0.0 0.00 0.00 0.00 76 1006.8
20260903104525 15 261 0.0 0.0 0.00 0.00 0.00 76 1006.9
20260903103024 16 263 0.0 0.0 0.00 0.00 0.00 75 1007.0
20260903101521 16 360 0.0 0.0 0.00 0.00 0.00 74 1007.3
20260903100021 15 254 0.0 0.0 0.00 0.00 0.00 75 1007.5
20260903094542 15 219 0.0 0.0 0.00 0.00 0.00 76 1007.6
20260903093017 15 360 0.0 0.0 0.00 0.00 0.00 75 1007.6
20260903091520 15 241 0.0 0.0 0.00 0.00 0.00 76 1007.7
20260903090016 14 247 0.0 0.0 0.00 0.00 0.00 75 1007.7
20260903084515 14 241 0.0 0.0 0.00 0.00 0.00 74 1007.8
20260903083017 14 219 0.0 0.0 0.00 0.00 0.00 73 1007.8
20260903081523 15 226 0.0 0.0 0.00 0.00 0.00 73 1008.0
20260903080014 14 198 0.0 0.0 0.00 0.00 0.00 73 1008.0
20260903074514 14 206 0.0 0.0 0.00 0.00 0.00 71 1008.2
20260903073012 15 256 0.0 0.0 0.00 0.00 0.00 72 1008.1
20260903071509 13 219 0.0 0.0 0.00 0.00 0.00 73 1008.1
20260903070007 13 236 0.0 0.0 0.00 0.00 0.00 73 1008.2
20260903064504 13 227 0.0 0.0 0.00 0.00 0.00 74 1008.2
20260903063007 13 206 0.0 0.0 0.00 0.00 0.00 74 1008.2
20260903061506 13 208 0.0 0.0 0.00 0.00 0.00 73 1008.1
20260903060005 12 225 0.0 0.0 0.00 0.00 0.00 75 1008.3
20260903054510 11 245 0.0 0.0 0.00 0.00 0.00 75 1008.4
20260903053001 11 251 0.0 0.0 0.00 0.00 0.00 76 1008.6
20260903051602 11 216 0.0 0.0 0.00 0.00 0.00 76 1008.7
20260903051501 11 229 0.0 0.0 0.00 0.00 0.00 76 1008.7
20260903044606 11 257 0.0 0.0 0.00 0.00 0.00 75 1008.6
20260903043057 11 173 0.0 0.0 0.00 0.00 0.00 75 1008.7
20260903041604 11 203 0.0 0.0 0.00 0.00 0.00 75 1008.8
20260903040059 11 242 0.0 0.0 0.00 0.00 0.00 75 1008.8
20260903034554 10 205 0.0 0.0 0.00 0.00 0.00 75 1008.9
20260903033111 11 215 0.0 0.0 0.00 0.00 0.00 74 1008.8
20260903031556 11 280 0.0 0.0 0.00 0.00 0.00 73 1008.9
20260903030056 11 241 0.0 0.0 0.00 0.00 0.00 73 1008.9
20260903024554 11 203 0.0 0.0 0.00 0.00 0.00 72 1008.9
20260903023054 11 257 0.0 0.0 0.00 0.00 0.00 72 1008.9
20260903021604 11 234 0.0 0.0 0.00 0.00 0.00 72 1008.9
20260903020049 11 246 0.0 0.0 0.00 0.00 0.00 72 1008.9
20260903014550 11 232 0.0 0.0 0.00 0.00 0.00 72 1009.2
20260903013045 12 225 0.0 0.0 0.00 0.00 0.00 72 1009.2
20260903011546 12 272 0.0 0.0 0.00 0.00 0.00 73 1009.1
20260903010048 12 243 0.0 0.0 0.00 0.00 0.00 73 1009.2
20260903004555 12 280 0.0 0.0 0.00 0.00 0.00 72 1009.2
20260903003042 12 235 0.0 0.0 0.00 0.00 0.00 71 1009.3
20260903001542 12 209 0.0 0.0 0.00 0.00 0.00 71 1009.3
20260903000041 12 190 0.0 0.0 0.00 0.00 0.00 71 1009.3
20260902234540 12 221 0.0 0.0 0.00 0.00 0.00 72 1009.3
20260902233045 12 247 0.0 0.0 0.00 0.00 0.00 73 1009.4
20260902231549 13 242 0.0 0.0 0.00 0.00 0.00 74 1009.3
20260902230042 13 279 0.0 0.0 0.00 0.00 0.00 75 1009.1
20260902224541 13 259 0.0 0.0 0.00 0.00 0.00 76 1009.3
20260902223036 13 240 0.0 0.0 0.00 0.00 0.00 77 1009.3
20260902221534 13 230 0.0 0.0 0.00 0.00 0.00 77 1009.4
20260902220035 13 262 0.0 0.0 0.00 0.00 0.00 77 1009.4
20260902214531 13 239 0.0 0.0 0.00 0.00 0.05 76 1009.4
20260902213031 13 360 0.0 0.0 0.00 0.00 0.05 76 1009.4
20260902211532 13 225 0.0 0.0 0.00 0.00 0.05 76 1009.4
20260902210036 13 263 0.0 0.0 0.00 0.00 0.05 76 1009.3
20260902204540 13 227 0.0 0.0 0.00 0.00 0.05 75 1009.4
20260902203031 13 265 0.0 0.0 0.00 0.00 0.05 75 1009.5
20260902201532 13 360 0.0 0.0 0.00 0.00 0.05 76 1009.5
20260902200030 13 250 0.0 0.0 0.00 0.00 0.05 76 1009.7
20260902194529 13 283 0.0 0.0 0.00 0.00 0.05 76 1009.7
20260902193035 13 246 0.0 0.0 0.00 0.00 0.05 76 1009.6
20260902191534 13 229 0.0 0.0 0.00 0.00 0.05 76 1009.6
20260902190033 13 237 0.0 0.0 0.00 0.00 0.05 76 1009.6
20260902184534 14 180 0.0 0.0 0.00 0.00 0.05 75 1009.7
20260902183039 14 236 0.0 0.0 0.00 0.00 0.05 75 1009.6
20260902181527 14 202 0.0 0.0 0.00 0.00 0.05 74 1009.5
20260902180027 14 233 0.0 0.0 0.00 0.00 0.05 73 1009.6